Location: Tambov
(52.7163°N, 41.4075°E)
Time: 21:29:39
(UTC+03:00)

Envisat - Pass Details

Date: 11 March 2021
Orbit: 764 x 766 km, 98.1° (Epoch: 17 April)

Event Time Altitude Azimuth Distance (km) Brightness Sun altitude
Rises 04:39:22 0° 25° (NNE) 3,246 6.9 -18.6°
Reaches altitude 10° 04:42:26 10° 45° (NE) 2,314 6.4 -18.1°
Maximum altitude 04:45:53 18° 87° (E) 1,813 5.9 -17.6°
Drops below altitude 10° 04:49:19 10° 130° (SE) 2,301 5.9 -17.1°
Sets 04:52:20 0° 149° (SSE) 3,221 6.4 -16.7°
